ARIANE 3 DEB, 20127

Orbit data source: Space-Track

ARIANE 3 DEB, 20127 is space debris in HEO originally from a launch on Thu, 21 Jul 1988 UTC launched from the French Guiana (FRGUI). Debris objects in space refer to the collection of defunct objects orbiting the Earth. Examples of debris include non-operational satellites, rocket bodies, and fragments generated from explosions, collisions, or faulty payload assembly.

Loading next visibility...
Identifier
20127, 1988-063E
Orbit
HEO
Country
Flag of FRFR
Related business
Manufacturer
Unknown
Mission
Spacecraft
Bus & Motor
Unknown
Mass
Unknown
Launch date (UTC)
1988-07-21 (38 years ago)
Launch vehicle
Unknown
Launch site
French Guiana (FRGUI)
Object type
Payload
Rocket body
Debris
Shape & HBR
Unknown shape, 3.3 m
Radar Cross Section
Large (>1 m²)

Expand to show TLE details & history
Last TLE update: 2 days ago

TLE from 2 days ago
0 ARIANE 3 DEB
1 20127U 88063E   26171.46510355  .00000213  00000-0  71163-3 0  9990
2 20127   7.4748 250.9140 7161829  42.7096 354.5909  2.35174427318986
Epoch: 2026-06-20T11:09Z
TLE epoch observation values (Epoch: 2026-06-20T11:09:44.946Z)
Latitude
-0°
Longitude
174.95643°
Altitude
1,219.113 km
Speed
9.393 km/s
True Right ascension
16h 44m 17s
True Declination
0° 00' 00"
Sunlit
Object was in full shadow at epoch
Visualization orbit readout
Latitude
Unknown
Longitude
Unknown
Altitude
Unknown
Speed
Unknown
Apparent Right ascension
Unknown
Apparent Declination
Unknown
Sunlit
N/A
Visualization observer readout
Local Sidereal Time
23:07:55
Azimuth
Unknown
Elevation
Unknown
Doppler factor
Unknown
Orbital elements
Apogee altitude
34,623.551 km
Perigee altitude
402.597 km
Semi-major axis
23,891.211 km
Eccentricity
0.71618
Inclination
7.4748°
RAAN
250.914°
Arg. of periapsis
42.7096°
True anomaly
316.82963°
Mean anomaly
354.5909°
Eccentric anomaly
341.72016°
Mean motion
0.58774 °/min
Orbital period
612.51 mins
BSTAR
0.00071163
Loading maneuver chart data...
Computing Atmospheric mass density...
Loading historical data...
Loading historical data...
Loading historical data...
Loading historical data...
Loading historical data...
Loading historical data...
Loading historical data...

Documentation

Showing up to 5 results
|